User: anonymous   Login
Location: Peebles
(55.6412°N, 3.1714°W)
Time: 16:26:02
(UTC+01:00)
Language:

Hubble Space Telescope - Orbit

View from above orbital plane
View from above orbital plane
View from above satellite
View from above satellite

Ground track
Ground track

The orbit data is extracted from the following two-line orbital elements,

1 20580U 90037B   22273.92571675  .00003588  00000-0  19899-3 0  9995
2 20580  28.4691 189.7432 0002710  92.3604 338.5365 15.10943729582183
Epoch (UTC): 30 September 2022 22:13:01
Eccentricity: 0.0002710
inclination: 28.4691°
perigee height: 531 km
apogee height: 535 km
right ascension of ascending node: 189.7432°
argument of perigee: 92.3604°
revolutions per day: 15.10943729
mean anomaly at epoch: 338.5365°
orbit number at epoch: 58218

The dashed part of the orbit path shows where the satellite is in the earth's shadow,  

DLR